TimeMDT,TemperatureF,Dew PointF,Humidity,Sea Level PressureIn,VisibilityMPH,Wind Direction,Wind SpeedMPH,Gust SpeedMPH,PrecipitationIn,Events,Conditions,WindDirDegrees,DateUTC
12:53 AM,70.0,46.9,44,29.91,10.0,SSW,10.4,-,N/A,,Clear,200,2013-08-29 06:53:00
1:53 AM,68.0,44.1,42,29.90,10.0,SSW,10.4,-,N/A,,Clear,210,2013-08-29 07:53:00
2:53 AM,71.1,42.1,35,29.89,10.0,SW,11.5,-,N/A,,Clear,220,2013-08-29 08:53:00
3:53 AM,69.1,43.0,39,29.89,10.0,SW,11.5,-,N/A,,Clear,230,2013-08-29 09:53:00
4:53 AM,66.0,45.0,47,29.91,10.0,WSW,12.7,-,N/A,,Clear,240,2013-08-29 10:53:00
5:53 AM,63.0,45.0,52,29.92,10.0,WSW,13.8,-,N/A,,Clear,250,2013-08-29 11:53:00
6:53 AM,64.0,48.0,56,29.94,10.0,WSW,16.1,-,N/A,,Clear,250,2013-08-29 12:53:00
7:53 AM,68.0,48.0,49,29.96,10.0,West,16.1,-,N/A,,Clear,260,2013-08-29 13:53:00
8:53 AM,73.0,46.9,39,29.98,10.0,West,16.1,24.2,N/A,,Clear,280,2013-08-29 14:53:00
9:53 AM,80.1,46.9,31,29.97,10.0,West,12.7,19.6,N/A,,Clear,280,2013-08-29 15:53:00
10:53 AM,87.1,48.0,26,29.96,10.0,NW,11.5,-,N/A,,Clear,310,2013-08-29 16:53:00
11:53 AM,91.9,42.1,18,29.94,10.0,NNW,8.1,16.1,N/A,,Clear,340,2013-08-29 17:53:00
12:53 PM,93.9,41.0,16,29.92,10.0,West,11.5,19.6,N/A,,Clear,280,2013-08-29 18:53:00
1:53 PM,96.1,42.1,15,29.92,10.0,WNW,13.8,20.7,N/A,,Clear,300,2013-08-29 19:53:00
2:53 PM,96.1,42.1,15,29.89,10.0,WNW,16.1,19.6,N/A,,Clear,300,2013-08-29 20:53:00
3:53 PM,97.0,41.0,14,29.89,10.0,NNE,8.1,18.4,N/A,,Clear,30,2013-08-29 21:53:00
4:53 PM,95.0,37.9,14,29.90,10.0,Variable,5.8,-,N/A,,Clear,0,2013-08-29 22:53:00
5:53 PM,95.0,42.1,16,29.91,10.0,Variable,4.6,-,N/A,,Clear,0,2013-08-29 23:53:00
6:53 PM,89.1,45.0,22,29.92,10.0,WNW,6.9,-,N/A,,Clear,290,2013-08-30 00:53:00
7:53 PM,81.0,46.0,29,29.94,10.0,Variable,4.6,-,N/A,,Clear,0,2013-08-30 01:53:00
8:53 PM,81.0,45.0,28,29.96,10.0,East,5.8,-,N/A,,Clear,80,2013-08-30 02:53:00
9:53 PM,80.1,46.0,30,29.94,10.0,SSW,10.4,-,N/A,,Clear,200,2013-08-30 03:53:00
10:53 PM,75.9,48.9,38,29.94,10.0,West,5.8,-,N/A,,Clear,280,2013-08-30 04:53:00
11:53 PM,75.9,48.9,38,29.93,10.0,WNW,5.8,-,N/A,,Clear,290,2013-08-30 05:53:00